User: anonymous   Login
Location: Pine Mountain Observatory
(43.7910°N, 120.9377°W)
Time: 13:45:15
(UTC-07:00)
Language:

Meteor 2-19 Rocket - Orbit

View from above orbital plane
View from above orbital plane
View from above satellite
View from above satellite

Ground track
Ground track

The orbit data is extracted from the following two-line orbital elements,

1 20671U 90057B   15088.09190985  .00000046  00000-0  27817-4 0  9999
2 20671 082.5448 296.8315 0016522 076.6980 085.5333 13.84587664250821
Epoch (UTC): 29 March 2015 02:12:21
Eccentricity: 0.0016522
inclination: 82.5448°
perigee height: 935 km
apogee height: 960 km
right ascension of ascending node: 296.8315°
argument of perigee: 76.6980°
revolutions per day: 13.84587664
mean anomaly at epoch: 85.5333°
orbit number at epoch: 25082

The dashed part of the orbit path shows where the satellite is in the earth's shadow,  

DLR